Location: Caltech
(34.1382°N, 118.1253°W)
Time: 18:42:14
(UTC-07:00)

USA 129 - Visible Passes

Search period start: 31 July 2014 00:00
Search period end: 10 August 2014 00:00
Orbit: 241 x 674 km, 97.5° (Epoch: 24 April)

Date Brightness Start Highest point End Pass type
(mag) Time Alt. Az. Time Alt. Az. Time Alt. Az.
31 Jul 4.3 21:32:48 32° E 21:33:11 32° ENE 21:36:57 10° N visible
31 Jul 5.9 23:05:46 16° W 23:05:46 16° W 23:07:56 10° NW visible
01 Aug 3.8 22:20:15 60° WNW 22:20:15 60° WNW 22:24:07 10° NNW visible
02 Aug 4.2 21:34:38 33° E 21:34:51 34° ENE 21:38:39 10° N visible
02 Aug 6.0 23:07:35 16° W 23:07:35 16° W 23:09:33 10° NW visible
03 Aug 5.7 20:49:41 10° ENE 20:49:57 10° ENE 20:50:13 10° ENE visible
03 Aug 4.0 22:21:50 56° WNW 22:21:50 56° WNW 22:25:31 10° NNW visible
04 Aug 4.2 21:35:58 34° ENE 21:36:01 34° ENE 21:39:50 10° N visible
04 Aug 6.1 23:08:54 15° WNW 23:08:54 15° WNW 23:10:40 10° NW visible
05 Aug 5.7 20:50:21 10° ENE 20:50:50 10° ENE 20:51:20 10° ENE visible
05 Aug 4.1 22:22:55 52° WNW 22:22:55 52° WNW 22:26:24 10° NNW visible
06 Aug 4.3 21:36:48 34° ENE 21:36:48 34° ENE 21:40:27 10° N visible
06 Aug 6.1 23:09:44 15° WNW 23:09:44 15° WNW 23:11:17 10° NW visible
07 Aug 5.7 20:50:56 10° ENE 20:51:13 10° ENE 20:51:30 10° ENE visible
07 Aug 4.3 22:23:30 48° NW 22:23:30 48° NW 22:26:46 10° NNW visible
08 Aug 4.3 21:37:09 33° ENE 21:37:09 33° ENE 21:40:32 10° N visible
08 Aug 6.2 23:10:04 14° WNW 23:10:04 14° WNW 23:11:23 10° NW visible
09 Aug 4.5 22:23:36 44° NW 22:23:36 44° NW 22:26:35 10° NNW visible
